Theta_e
329 327 324 327 321 323 323 322 324 319 320 324 324 326 325 322 317 316 318 316 316 316 319 321 318 319 318 316 317 314 315 317 318 318 317 317 316 316 318 318 319 320 318 314 314 316 318 320 321 321 321 321 322 321 321 320 320 320 319 319 318 317 316 315 315 314 316 318 319 319 319 319 319 318 317 318 319 319 320 321 323 324 325 326 326 327
331 328 326 333 325 320 320 319 320 317 320 323 324 323 320 321 320 317 317 317 316 315 318 321 317 317 317 315 315 315 315 316 317 318 318 317 316 316 317 318 319 318 317 317 316 315 317 320 320 321 321 321 321 320 320 319 319 319 318 318 317 316 315 315 314 314 314 315 317 317 317 317 317 315 316 317 319 320 320 320 321 322 322 323 324 325
324 328 329 327 319 318 319 319 320 321 325 326 326 325 320 318 318 316 318 319 317 315 319 324 320 318 317 314 314 313 314 315 315 317 317 316 316 316 317 318 318 317 321 325 321 315 316 319 319 320 320 320 320 319 318 318 318 318 317 317 316 315 315 314 314 314 313 312 314 316 315 315 315 314 316 318 319 319 320 320 320 321 321 322 323 323
317 325 326 319 316 319 318 319 323 322 323 327 327 325 321 320 317 315 318 318 316 314 319 324 322 320 318 317 320 318 314 313 314 314 316 317 316 316 317 319 320 319 325 330 324 316 314 316 318 318 318 318 318 317 317 317 317 317 316 316 315 314 314 314 314 313 312 311 312 314 314 314 314 314 316 318 318 318 318 318 318 319 320 321 321 321
319 320 318 315 317 323 318 318 326 323 318 322 327 326 321 321 319 317 319 320 320 319 321 321 320 328 331 325 330 332 320 315 316 315 316 317 317 319 320 321 321 320 324 330 328 319 313 314 316 316 317 317 317 316 316 316 316 316 316 315 315 314 313 313 313 312 312 312 312 313 313 313 313 314 315 315 316 316 317 317 317 317 318 319 320 320
319 316 315 315 317 323 321 319 326 327 317 315 321 324 322 324 323 324 325 322 321 322 322 318 317 333 342 328 326 329 319 317 321 323 324 321 318 322 324 326 327 324 324 326 326 320 313 313 314 315 315 315 316 316 315 315 316 316 315 315 314 313 313 312 312 311 311 311 312 313 312 312 312 311 312 313 315 315 316 317 317 317 317 317 318 318
316 316 318 319 321 326 323 318 321 327 321 313 318 323 328 333 330 329 329 319 317 319 320 319 317 325 330 320 318 319 314 315 317 319 325 322 320 325 328 329 330 331 330 325 320 317 313 312 313 313 314 315 315 315 315 315 315 315 315 314 314 313 312 312 311 310 310 311 312 312 312 312 312 311 311 313 315 315 316 317 316 316 315 315 316 316
315 318 320 323 330 331 323 316 318 326 322 315 320 326 331 334 328 330 332 323 321 322 324 328 322 320 324 320 318 317 314 316 314 316 320 318 320 326 329 329 330 335 337 329 322 318 314 311 312 313 314 314 314 314 315 315 315 315 314 314 313 313 312 311 310 310 310 311 311 312 312 313 313 312 312 314 315 314 315 315 315 315 313 313 314 314
316 322 322 324 331 329 322 320 324 330 326 320 323 327 331 331 330 336 337 329 325 320 326 334 323 318 328 331 325 319 316 319 320 320 317 317 324 330 330 330 333 336 333 328 324 319 312 310 312 314 314 314 314 314 314 314 314 314 314 314 313 312 312 311 310 310 309 310 311 311 312 312 313 313 314 315 315 312 311 312 312 312 312 311 311 312
317 319 320 324 326 324 321 321 325 331 325 322 324 329 333 334 333 335 333 328 321 316 326 335 324 315 321 328 324 316 317 323 322 320 319 323 331 333 332 331 331 331 327 326 324 314 310 311 312 313 314 314 314 314 314 314 314 314 313 313 312 312 311 311 310 310 309 309 310 311 312 312 312 313 313 313 312 310 308 308 309 310 311 310 310 311
316 313 316 321 319 322 323 319 323 327 322 322 329 333 331 333 337 336 336 330 316 318 331 332 325 316 315 327 329 320 323 324 318 319 325 330 330 328 331 330 328 327 325 327 326 314 308 311 312 313 314 314 314 314 314 314 314 314 313 312 312 312 311 310 310 309 309 309 310 311 311 312 312 312 312 311 309 307 306 306 307 308 309 309 309 310
319 315 316 318 315 320 324 319 321 328 329 328 332 331 321 326 337 336 336 329 315 323 333 328 325 318 315 325 328 325 327 323 317 322 331 337 333 331 335 332 327 327 323 325 328 319 311 310 312 313 313 314 314 314 314 314 314 313 313 312 311 311 310 310 309 309 309 309 309 310 311 312 312 311 311 311 310 308 306 306 306 306 307 308 308 308
321 320 317 316 314 318 323 321 320 326 333 330 327 324 314 318 329 330 332 329 322 326 325 324 325 318 317 323 321 323 327 322 321 324 332 339 335 335 338 332 327 327 324 323 324 322 316 311 310 312 313 313 313 314 313 314 313 313 312 312 311 310 310 309 309 309 309 309 309 310 310 311 311 310 311 311 311 311 310 309 308 306 306 307 307 307
321 322 318 315 315 317 319 319 317 320 327 326 322 322 318 319 322 325 328 325 326 328 321 319 322 318 322 323 319 321 321 321 324 324 333 340 339 341 338 329 327 325 323 321 320 322 319 311 309 311 313 313 313 313 313 313 313 312 312 311 311 310 310 309 309 308 308 308 309 309 310 311 310 310 310 311 311 312 312 311 310 309 309 309 309 310
322 324 322 317 316 319 318 317 321 323 323 323 325 323 320 325 328 327 328 326 328 329 322 317 319 324 325 319 318 321 319 322 325 327 333 333 336 342 333 324 325 324 321 319 319 320 315 308 309 311 311 312 313 312 313 313 312 312 311 311 311 310 309 308 308 307 307 307 308 309 310 311 310 310 310 310 311 312 312 311 311 311 311 312 312 312
318 321 325 321 317 318 319 319 323 323 320 321 323 321 320 327 333 328 323 327 327 323 322 320 323 328 324 317 320 322 321 323 322 324 327 323 326 333 335 333 328 323 320 318 319 318 313 307 308 311 311 312 313 312 313 312 312 312 311 311 310 310 309 308 307 307 306 307 307 309 311 311 310 310 310 310 310 311 312 312 312 312 312 313 313 312
317 318 321 321 318 316 318 321 321 318 318 319 319 325 328 328 334 328 315 316 317 315 319 321 322 323 317 316 320 318 317 318 317 319 322 323 324 326 335 338 331 326 321 317 319 318 312 307 307 310 311 312 312 312 312 312 312 312 311 311 310 310 309 308 307 307 306 306 307 308 309 310 310 309 310 310 310 311 311 311 311 312 312 312 311 311
323 322 318 318 319 316 316 319 320 318 320 322 321 327 328 321 327 331 320 317 317 317 321 319 316 316 313 316 323 321 316 314 315 317 318 323 324 323 330 331 330 332 325 317 317 315 309 306 307 309 310 311 312 312 312 312 312 312 311 311 310 309 309 308 307 307 306 306 306 307 308 309 309 309 310 311 311 311 310 309 310 310 310 309 309 309
325 323 316 315 317 319 318 318 319 318 318 324 324 322 323 323 326 326 321 321 318 317 323 321 315 314 313 315 318 318 317 317 318 319 317 319 320 322 326 325 328 334 328 319 318 316 311 307 307 309 309 310 311 312 312 312 311 311 311 311 310 310 309 309 308 307 306 305 306 306 307 308 309 309 310 311 312 311 310 309 309 308 307 306 306 306
323 318 316 315 316 317 317 318 322 320 318 321 320 316 322 328 328 325 320 321 321 317 319 322 317 315 316 318 316 314 316 318 319 320 319 318 317 319 323 325 331 337 337 329 320 317 314 308 307 309 309 310 311 311 312 312 311 311 311 310 310 310 309 308 308 306 305 305 305 306 307 308 309 310 310 311 311 311 309 309 308 306 305 305 305 305
319 315 316 316 314 317 318 319 320 320 319 321 320 319 321 320 321 324 322 322 326 323 319 320 317 316 319 320 318 317 319 320 319 320 322 322 320 318 321 328 333 337 342 336 323 320 314 307 308 309 309 310 311 311 312 312 311 311 311 311 310 309 309 308 307 306 305 304 304 305 306 307 308 309 310 311 311 311 309 308 307 305 305 305 306 306
317 316 321 320 318 321 324 320 317 318 320 319 319 321 320 319 321 322 320 320 323 325 326 323 316 316 318 317 317 319 322 324 323 321 324 328 326 326 331 340 342 341 343 337 329 325 315 307 307 308 308 310 310 310 311 312 311 311 311 311 310 309 309 308 307 306 305 304 304 304 304 305 307 308 309 311 311 310 308 307 306 305 305 305 306 306
321 323 326 324 320 320 320 316 315 318 320 317 319 320 318 320 323 321 324 325 321 321 327 325 318 315 316 320 321 321 323 328 330 328 328 332 336 340 343 345 344 343 343 339 335 328 312 306 308 309 308 309 309 310 311 311 311 311 311 310 310 309 309 308 308 306 305 304 303 304 304 304 306 307 308 309 310 309 307 307 307 306 305 306 306 305
321 322 322 320 318 319 320 317 316 319 320 318 320 321 318 321 325 327 332 330 325 324 322 320 319 315 318 330 331 326 326 329 330 329 329 331 337 343 344 341 339 339 337 334 334 324 309 305 308 308 307 309 309 310 310 311 311 311 311 310 309 309 309 308 307 306 305 304 303 303 303 303 304 306 308 309 309 308 306 306 307 306 305 306 307 305
317 320 320 320 319 322 325 322 319 319 319 320 325 323 320 322 322 323 325 321 321 326 323 319 319 315 319 328 329 327 327 326 325 327 328 327 328 336 341 340 338 336 332 330 330 325 316 312 309 306 306 308 308 310 310 311 311 311 310 310 309 309 308 307 307 306 305 304 303 303 303 303 303 304 306 308 308 307 306 306 306 306 305 305 306 305
321 322 320 320 319 319 322 321 320 322 319 321 326 324 319 321 319 317 319 318 318 322 321 319 317 314 316 318 320 322 322 322 327 329 328 324 323 329 335 336 337 335 333 332 329 325 319 314 308 304 305 307 307 309 310 309 310 310 310 310 310 309 309 307 306 306 305 304 303 303 303 302 302 302 304 306 307 306 305 305 306 305 304 305 305 304
325 322 316 316 317 316 317 319 320 322 322 320 323 322 319 320 319 317 319 320 317 316 317 318 315 315 315 313 314 317 316 320 326 326 326 327 327 330 332 333 336 333 331 331 327 322 318 316 311 304 303 306 307 307 309 308 309 309 309 310 310 309 309 307 306 306 305 304 303 303 303 302 302 302 302 304 306 306 304 304 305 305 304 304 303 302
324 319 315 317 317 314 316 321 321 320 321 321 320 321 320 319 319 318 318 318 316 316 316 316 315 315 315 313 313 314 314 318 321 321 323 324 324 327 328 328 331 331 330 329 327 324 321 323 321 308 301 304 306 306 307 308 308 309 309 310 310 309 308 307 306 306 305 304 303 303 303 303 302 302 301 302 303 304 304 303 303 303 303 302 301 300
323 319 318 317 316 316 316 319 321 320 319 320 319 320 320 319 319 319 318 316 317 318 316 315 317 317 314 313 313 315 315 316 316 315 316 316 318 321 322 324 330 333 333 332 329 326 323 329 332 315 302 303 305 305 306 306 307 308 308 309 309 309 308 307 306 306 305 304 304 303 303 302 302 301 301 301 301 302 303 303 303 302 301 301 300 299
320 322 324 317 315 317 317 318 321 320 318 318 319 319 318 318 318 318 317 317 316 317 316 316 318 316 314 312 313 315 317 317 316 315 315 316 319 320 321 323 328 331 334 333 330 329 328 330 327 312 302 303 305 305 306 306 306 307 307 308 309 308 308 307 306 306 305 304 304 304 302 301 301 301 301 300 300 300 301 302 302 301 301 300 300 299
316 324 325 317 315 318 318 318 319 320 320 319 320 321 318 316 317 316 317 317 316 317 316 316 317 316 313 314 315 314 315 316 317 316 316 318 319 320 321 322 325 329 331 329 326 326 325 323 321 312 304 304 306 306 306 306 306 306 306 307 308 308 308 307 306 306 305 305 305 304 302 301 301 300 300 300 300 299 299 300 301 301 300 300 299 298
317 321 321 317 318 320 319 317 318 319 320 319 322 323 319 316 316 315 316 316 316 317 317 317 317 315 314 316 317 315 315 317 318 317 318 319 320 322 322 322 324 326 325 323 323 322 321 322 325 319 308 305 307 308 307 307 306 305 306 307 307 307 307 306 306 306 305 305 305 303 302 301 300 300 300 300 299 299 299 299 300 300 300 299 298 297
320 320 321 321 320 320 320 318 318 319 318 318 319 319 317 317 316 315 315 316 316 316 317 317 316 314 314 317 318 316 317 319 320 320 320 321 322 324 323 322 322 322 321 322 321 322 323 321 317 313 308 308 310 310 310 310 308 307 308 308 307 306 306 306 306 306 305 305 304 303 302 301 300 300 299 299 299 298 298 297 298 299 299 298 298 296
320 319 321 321 318 318 320 319 318 319 317 316 317 316 316 316 316 316 316 315 315 315 314 315 315 314 314 316 316 316 316 318 319 319 319 319 320 321 321 321 321 322 323 323 321 323 323 315 308 308 310 311 311 311 311 311 309 309 309 308 307 305 305 305 306 305 305 305 303 302 302 300 299 299 299 299 298 297 297 297 297 297 297 297 296 295
319 318 318 319 317 320 322 319 318 318 316 318 323 323 317 315 315 316 316 315 314 315 315 315 314 314 314 314 315 316 316 317 318 317 316 318 319 319 320 321 321 322 323 323 323 323 317 308 306 310 311 310 310 310 310 310 310 309 309 307 306 305 305 305 305 305 305 304 303 302 302 300 299 299 298 298 298 297 296 296 296 296 295 295 295 294
317 317 317 319 321 322 322 319 318 318 319 322 325 322 317 317 317 316 316 316 315 314 316 315 314 314 314 314 316 317 317 317 318 316 315 319 322 320 320 321 321 322 321 318 317 317 311 306 308 310 309 308 308 308 308 308 308 308 308 307 306 305 304 304 304 304 304 303 303 302 301 300 299 298 298 297 297 296 296 295 295 295 294 294 293 293
316 316 316 318 319 318 318 318 317 318 321 320 320 318 316 317 319 319 318 318 315 314 314 315 314 314 315 316 317 317 317 318 316 315 317 323 325 322 321 320 317 316 315 310 309 310 308 307 308 307 307 308 307 306 306 306 306 307 307 307 305 304 304 304 304 304 303 303 303 302 301 301 300 298 298 297 296 296 295 295 294 294 293 293 292 292
315 316 316 316 317 316 316 317 318 319 320 317 316 319 319 318 319 321 319 318 316 316 316 315 315 315 315 317 319 317 316 317 316 316 321 326 325 322 323 319 310 306 307 307 306 307 307 307 307 306 306 307 307 306 305 305 305 306 306 305 305 304 304 303 303 303 303 303 303 303 302 301 300 299 298 297 296 296 295 294 294 293 293 293 292 292
316 316 316 316 318 318 316 317 318 319 319 319 320 322 321 319 319 320 320 318 317 318 319 317 316 316 316 318 317 315 315 317 318 319 321 322 321 320 321 318 309 304 305 307 306 307 307 306 306 307 306 306 306 306 305 304 304 304 304 305 304 303 303 303 303 304 304 304 303 303 302 301 300 300 299 297 297 296 295 294 294 293 293 292 292 291
315 316 316 315 316 317 317 317 318 318 318 319 322 322 319 317 318 321 321 320 319 321 321 318 316 317 318 316 314 315 318 318 317 316 315 315 315 314 313 312 309 306 306 307 306 306 306 305 305 306 305 305 305 304 303 303 302 302 303 303 303 302 303 304 304 304 304 303 302 302 301 301 300 299 299 298 297 296 295 295 294 293 292 292 292 291
315 315 315 315 315 315 317 317 317 317 320 321 319 318 318 316 317 321 321 320 320 320 318 319 319 319 319 318 316 318 319 317 314 315 314 314 315 312 307 305 306 306 306 307 306 305 305 304 304 304 304 304 304 303 302 302 301 301 302 301 301 302 303 304 304 303 302 302 301 301 301 300 300 299 299 298 298 296 295 294 294 293 292 292 291 291
316 316 315 316 316 315 316 317 317 318 321 322 319 317 318 318 320 322 319 317 319 320 319 323 325 322 320 319 318 319 318 315 315 317 315 315 315 313 307 304 305 306 305 305 305 304 304 303 303 303 304 304 303 302 301 300 299 300 300 300 301 303 303 303 302 301 301 300 300 299 299 299 299 299 298 298 297 296 295 294 294 293 293 292 291 290
316 316 316 316 316 317 317 317 318 319 318 317 318 317 317 318 322 325 321 317 317 320 321 321 320 318 318 317 316 317 319 319 318 316 315 317 317 313 308 305 304 305 304 304 304 303 302 302 302 302 303 303 302 301 300 299 299 299 298 299 302 302 302 301 300 300 299 299 298 298 298 298 298 298 297 297 296 295 295 294 293 293 292 291 290 289
315 316 317 317 316 317 318 317 320 323 319 315 316 318 317 316 318 321 321 318 315 314 316 317 314 314 315 313 312 315 317 316 315 313 313 315 315 314 311 305 301 301 302 303 304 303 302 301 301 301 302 303 303 302 300 299 298 297 297 300 302 301 299 299 299 298 298 298 298 298 298 297 297 297 296 296 295 294 294 293 292 292 291 290 290 289
316 315 316 317 316 316 316 316 319 323 320 315 314 316 315 314 314 316 319 317 313 312 314 314 312 313 314 311 310 313 313 311 311 311 310 310 311 312 310 305 301 301 302 303 303 303 302 301 300 300 301 303 304 303 301 300 298 297 298 301 301 299 298 298 297 297 297 297 297 297 297 297 296 296 296 295 295 294 293 292 291 290 290 289 289 288
316 315 314 316 317 316 316 316 316 317 316 314 313 313 312 312 312 314 314 313 311 313 314 313 311 312 313 310 309 311 311 311 311 312 311 310 309 307 304 301 301 301 302 302 303 303 302 301 300 299 300 302 303 302 301 300 298 298 299 300 299 297 297 296 295 296 296 296 296 296 296 295 295 295 294 294 294 293 293 292 291 290 289 288 288 287
314 313 312 314 316 316 316 316 315 314 314 313 312 312 311 310 310 310 311 310 310 311 312 312 312 312 311 309 309 310 311 310 310 310 310 309 308 308 307 304 301 300 301 301 302 302 301 300 299 298 298 299 301 301 300 298 298 298 298 298 297 296 295 294 294 295 295 295 295 295 294 294 294 293 293 292 292 292 291 291 291 289 288 287 287 286
311 311 312 312 313 314 314 313 311 311 313 312 312 312 311 309 308 307 307 309 310 310 309 309 310 310 310 309 309 309 310 311 310 309 309 309 308 309 308 303 298 297 299 300 300 300 300 299 298 298 297 298 299 299 298 297 297 297 296 296 295 295 294 293 293 293 294 294 294 293 293 293 293 292 292 291 291 290 290 290 289 289 288 288 288 287
307 311 312 310 311 314 314 311 310 311 312 311 311 310 309 308 306 305 306 309 312 312 312 311 310 308 308 308 309 308 309 311 310 308 308 308 308 307 304 299 297 298 299 299 299 299 298 297 297 297 296 297 297 297 296 296 296 296 295 295 294 293 293 293 293 293 293 293 292 292 292 292 291 291 291 290 289 289 289 289 289 289 289 288 288 288
305 309 311 310 312 314 313 310 310 313 314 312 310 308 306 305 306 306 307 308 309 309 310 311 311 308 305 304 305 306 308 309 309 307 306 306 305 302 298 296 296 297 297 297 297 297 297 296 296 295 295 295 296 295 295 295 295 295 294 294 293 292 292 292 292 292 292 292 291 291 291 290 290 290 289 289 288 288 287 288 288 288 288 288 288 288
307 309 310 310 311 312 311 310 309 310 311 311 308 303 299 297 300 302 303 302 302 302 303 304 307 308 306 302 301 302 306 307 305 304 304 304 300 297 296 296 296 296 296 296 295 295 295 295 294 294 293 294 293 293 293 293 293 293 293 293 292 292 291 291 291 291 290 290 290 290 290 289 289 288 288 288 287 287 286 286 286 286 287 287 287 287
Wind_Speed
4 4 2 4 6 6 6 7 7 5 6 7 5 5 4 5 0 2 1 4 0 3 5 7 6 8 9 11 11 9 7 7 10 10 10 10 9 8 8 8 9 10 10 12 17 22 25 27 26 26 26 27 28 29 30 30 30 29 28 28 26 25 24 25 25 26 27 27 25 24 23 23 23 22 21 22 23 23 24 24 23 22 23 23 25 28
5 5 4 6 7 7 6 6 6 5 6 6 5 5 3 4 2 2 1 4 2 2 5 3 4 10 10 10 11 8 8 9 11 11 12 13 11 9 9 10 10 8 5 6 10 16 22 24 25 26 26 28 29 29 30 30 29 29 28 27 26 25 25 25 25 25 26 27 27 25 23 23 21 19 19 20 23 23 24 25 26 25 25 25 26 28
5 1 7 7 5 5 5 5 8 7 6 6 4 5 3 1 2 1 2 3 1 2 4 4 5 10 11 10 11 10 10 11 10 11 12 12 11 9 9 9 10 8 5 5 8 13 21 24 25 26 26 28 29 28 28 28 28 27 27 26 25 25 26 25 24 22 22 24 25 23 21 20 19 17 17 18 20 22 24 25 26 27 27 27 28 30
2 4 7 5 5 8 6 5 8 7 5 4 4 5 1 1 2 0 3 3 0 1 2 3 4 9 10 7 10 11 10 11 10 9 10 10 10 11 10 10 10 10 8 6 6 10 17 20 23 25 27 28 28 27 27 27 27 27 27 26 25 26 26 24 23 20 19 21 22 21 19 18 18 17 18 18 17 19 22 24 25 26 26 28 30 31
4 5 4 2 5 8 6 5 6 6 3 2 3 5 3 2 4 2 2 2 2 3 2 3 5 6 6 5 7 7 4 6 8 7 10 10 9 9 8 9 9 10 9 8 8 8 13 18 23 26 27 27 27 27 28 28 28 27 27 26 25 25 25 23 21 19 19 20 21 21 18 17 17 17 19 20 20 19 21 24 25 25 25 26 28 30
5 4 1 3 4 6 7 3 3 6 3 3 0 3 6 7 6 3 4 5 5 5 3 3 4 6 5 6 7 6 5 6 6 5 10 10 6 7 7 8 8 7 7 8 10 10 13 17 20 22 24 26 27 28 28 28 28 27 27 26 25 24 24 22 21 20 20 21 22 23 22 22 21 20 22 24 24 23 22 23 24 25 25 26 27 28
2 2 3 5 5 7 7 3 2 6 6 0 3 4 6 8 7 5 5 4 2 3 3 3 2 5 7 6 9 9 9 11 9 7 12 11 5 6 7 7 7 5 6 7 8 9 12 15 17 19 23 26 27 27 27 26 27 27 26 25 25 24 23 23 22 21 21 22 23 24 24 24 23 22 22 23 23 22 22 22 24 25 25 26 27 28
1 3 5 5 6 6 5 2 2 6 8 2 4 5 6 7 7 5 6 4 2 3 4 4 3 3 6 6 9 10 9 11 10 10 13 10 5 7 8 7 6 6 7 7 8 8 10 15 18 21 24 26 26 25 26 26 27 27 26 25 25 23 23 23 23 22 22 23 24 24 24 23 23 22 21 21 21 21 22 23 24 25 26 27 27 28
1 4 4 5 6 4 3 3 2 5 6 4 4 5 6 7 7 5 7 3 1 2 5 6 1 2 6 7 6 4 4 9 10 12 13 9 7 8 6 4 4 5 5 7 8 8 10 16 20 22 24 25 25 24 25 26 26 26 25 24 24 24 23 23 23 23 23 23 23 24 23 22 22 22 21 20 21 21 22 24 24 25 28 29 28 28
0 4 6 6 5 4 4 2 2 4 4 3 3 6 5 5 5 5 5 3 3 2 4 6 2 2 5 7 5 0 2 7 9 9 9 7 6 5 3 4 3 2 3 5 6 8 13 18 20 21 21 22 23 24 24 25 26 25 25 24 24 24 24 24 23 23 24 24 23 24 24 23 23 22 21 20 21 21 22 24 25 26 28 30 31 29
2 1 2 3 3 5 5 2 2 3 5 5 5 7 7 6 5 4 3 4 3 3 6 7 5 2 4 6 4 3 4 6 5 4 5 4 3 3 4 4 4 3 3 5 5 7 11 15 18 18 19 21 22 23 23 24 25 26 25 25 25 25 25 25 24 23 24 25 24 25 25 25 24 24 23 21 21 22 23 24 25 26 28 30 32 32
5 3 1 1 0 3 6 4 5 5 5 6 5 5 4 4 5 5 5 4 1 5 6 6 2 3 4 6 4 5 7 6 5 4 5 6 5 5 6 5 5 3 2 3 5 6 8 10 14 17 19 21 22 23 24 25 26 26 26 26 25 25 26 26 25 24 25 25 25 26 25 25 25 25 24 24 24 25 25 26 26 26 28 29 31 32
3 2 2 3 2 3 6 5 4 6 5 5 5 6 4 2 3 3 3 1 2 6 5 4 2 3 6 6 6 9 9 6 5 6 7 8 7 7 7 6 5 5 4 4 4 6 6 7 12 17 20 22 23 25 26 26 27 27 27 27 27 27 27 27 26 26 26 26 26 27 26 26 25 25 25 25 25 26 26 27 28 29 29 30 31 33
2 5 3 1 3 2 6 6 2 1 0 4 5 5 5 3 2 2 4 1 3 5 4 3 2 3 4 4 8 11 9 7 6 6 7 8 8 8 8 6 6 5 5 5 5 5 6 8 13 17 21 23 24 26 27 27 28 28 28 28 28 28 27 27 27 27 27 28 27 28 27 27 26 26 25 26 26 26 27 28 30 31 32 33 34 35
3 3 3 4 2 3 6 5 6 6 3 4 5 6 5 5 4 4 3 3 4 4 3 3 2 3 2 3 7 7 7 7 6 6 5 5 5 4 4 5 6 6 5 5 5 6 7 10 14 17 20 23 25 26 27 28 29 29 29 29 30 29 28 28 28 28 28 28 28 29 29 28 28 27 27 27 26 26 27 29 30 31 32 33 34 35
5 4 4 2 1 5 6 3 4 7 2 2 4 6 2 4 5 3 3 5 3 1 3 2 3 5 4 6 8 7 9 8 7 7 5 5 5 0 3 5 5 5 6 5 6 6 8 12 15 17 19 22 24 26 28 29 30 30 30 30 30 30 29 29 29 29 28 28 28 29 30 30 29 28 28 28 28 27 27 28 29 30 30 31 33 35
4 2 4 4 4 3 4 1 1 4 2 1 3 3 5 4 7 5 2 0 3 1 4 2 5 5 3 6 8 6 8 8 8 9 7 7 6 3 4 5 5 6 6 7 8 8 9 12 16 19 21 23 25 27 29 30 31 31 31 31 31 30 30 30 30 30 29 28 28 29 30 31 30 30 31 30 30 29 27 27 28 28 29 31 33 34
5 1 4 3 2 2 2 2 3 2 3 5 3 5 3 1 4 4 1 2 3 2 4 2 6 6 2 5 6 5 4 3 6 8 9 9 6 5 7 5 6 7 7 8 9 8 9 12 17 21 24 26 27 28 30 30 31 31 31 31 31 31 32 32 31 30 30 30 30 31 31 32 32 31 32 31 31 30 28 28 28 28 29 31 32 33
5 3 4 1 2 5 3 4 1 4 2 4 4 3 3 2 1 2 2 2 1 2 5 4 5 5 5 6 4 5 5 3 5 9 10 11 8 7 8 7 6 6 6 7 8 8 8 12 18 22 24 26 27 27 28 29 29 30 31 31 31 31 31 31 31 30 30 31 32 32 32 33 34 33 32 32 31 31 30 29 29 29 30 31 31 31
3 4 2 2 1 2 4 2 4 1 2 2 1 1 2 3 4 3 3 3 3 3 4 3 4 4 6 6 6 8 9 7 9 9 8 10 11 8 7 7 7 6 6 7 8 7 8 13 20 23 24 25 26 27 27 27 29 30 30 31 31 31 30 30 30 30 31 31 32 33 33 34 35 34 33 32 32 32 31 31 30 30 31 31 31 31
2 3 4 2 3 0 2 3 7 8 4 2 2 2 1 2 2 1 1 2 4 4 3 2 5 7 6 4 8 9 9 9 9 8 8 9 9 8 7 7 7 6 7 7 7 7 8 13 19 21 23 24 25 25 26 27 29 29 30 32 32 31 31 31 31 31 31 31 31 33 34 34 34 34 34 33 33 33 33 32 31 31 31 31 31 32
2 3 4 2 1 3 5 5 5 9 7 6 6 6 6 4 4 2 2 2 2 3 4 3 5 11 5 5 6 8 7 8 7 8 8 7 7 7 8 7 7 6 7 7 7 7 8 12 16 18 19 21 22 24 25 26 27 29 31 33 33 33 33 33 32 32 31 31 31 33 33 33 33 34 34 35 35 35 34 33 32 32 32 32 31 32
4 4 5 3 3 5 6 5 2 4 4 4 4 4 5 4 5 6 4 4 1 2 3 4 3 10 4 6 6 6 6 5 5 7 7 6 6 6 7 6 6 6 7 7 7 7 8 12 14 15 17 19 21 23 24 25 27 29 31 32 32 34 35 34 33 32 31 31 32 33 33 33 33 34 34 35 36 36 35 34 33 33 33 33 32 32
3 4 4 1 2 3 5 5 3 2 3 3 2 3 5 4 4 6 5 4 3 4 3 3 4 10 4 2 2 2 3 3 4 6 6 5 5 6 7 6 6 7 7 6 6 6 8 11 12 13 16 19 21 22 23 25 27 29 30 31 32 34 34 34 33 31 31 31 32 32 33 34 34 35 36 37 37 37 36 35 34 34 34 33 33 34
3 3 5 4 1 3 4 4 3 3 1 2 4 4 6 7 6 3 2 3 2 7 7 5 7 10 3 4 5 6 5 2 3 4 3 4 6 6 6 6 6 7 6 6 6 5 6 8 9 12 16 19 21 23 25 27 29 30 31 32 33 34 33 33 32 32 31 31 32 32 33 35 35 36 38 38 38 37 36 35 35 35 35 34 34 35
5 5 6 7 6 6 5 5 5 3 2 2 3 5 7 9 10 6 2 3 6 7 8 7 11 12 6 3 4 6 5 4 7 7 5 5 7 6 6 6 6 7 7 8 7 6 6 7 7 11 16 19 21 24 26 27 29 30 30 32 33 34 34 33 32 31 31 32 32 33 34 36 37 38 38 39 39 38 36 35 36 36 36 35 35 36
4 3 7 10 11 11 10 7 5 7 6 5 6 8 9 9 11 8 4 5 9 5 5 10 13 13 16 12 8 8 6 5 7 7 6 7 7 6 7 7 7 7 7 7 7 6 7 7 8 12 16 19 21 23 25 26 27 28 29 32 34 34 34 33 31 32 32 33 33 34 35 37 38 39 38 38 39 38 36 36 36 37 37 36 36 37
5 4 9 11 13 13 10 8 8 10 10 11 11 11 11 11 11 11 9 11 10 5 7 13 9 10 22 20 12 12 10 7 8 9 8 8 8 7 7 7 8 8 7 6 6 8 9 9 9 11 16 19 19 21 24 26 28 29 31 33 34 34 34 33 32 33 34 33 34 36 37 37 37 38 38 37 37 38 37 37 37 37 37 36 37 38
5 5 8 9 11 12 8 7 10 12 10 10 12 13 13 13 13 15 17 17 11 8 12 15 10 14 24 20 10 10 9 9 11 10 9 8 7 7 8 8 9 8 8 8 9 9 9 9 9 10 14 17 17 20 23 26 28 30 32 34 34 34 34 33 32 34 35 35 36 38 37 36 36 36 37 36 36 37 38 38 38 37 37 37 38 38
3 5 6 8 9 10 8 7 10 11 8 7 10 12 13 16 18 20 21 20 15 12 14 16 13 16 20 14 8 9 9 8 8 6 6 6 7 8 9 9 9 9 9 9 9 9 9 10 10 10 12 14 17 21 24 25 28 30 32 34 34 33 34 33 33 35 35 36 38 38 35 34 34 35 36 37 37 38 38 38 38 38 38 38 39 39
2 4 3 7 5 8 8 8 8 9 8 6 7 10 13 15 16 18 17 14 11 11 14 15 14 17 15 6 6 11 7 5 8 8 7 7 8 8 9 10 10 10 10 9 9 9 9 9 9 8 9 13 18 21 23 25 27 27 29 32 33 33 33 32 33 34 35 37 39 37 34 33 34 34 35 37 38 38 38 38 38 39 39 39 39 39
3 3 1 5 4 6 8 7 6 6 5 4 7 12 14 12 11 12 11 9 11 12 15 13 12 16 12 5 7 12 5 5 10 9 7 8 8 8 10 10 10 10 9 9 9 9 9 8 8 7 9 13 17 20 22 23 24 24 27 30 31 31 30 30 32 34 36 37 37 35 35 34 34 35 36 37 38 39 39 38 38 39 39 39 39 39
6 5 2 4 5 5 7 5 7 8 4 4 11 15 15 12 11 7 5 10 15 14 12 11 13 17 12 5 8 11 5 5 10 7 7 8 8 9 10 10 9 9 8 9 9 9 8 8 8 9 10 12 14 15 17 19 21 23 25 27 27 27 27 28 31 33 35 36 35 34 34 34 34 35 36 37 38 38 37 37 39 41 41 40 40 39
5 6 4 4 4 6 6 4 7 4 7 9 9 10 13 14 14 11 10 16 18 13 10 12 13 15 12 7 9 11 7 7 9 9 9 7 7 9 9 8 8 8 9 9 8 7 7 8 10 11 10 9 9 10 12 14 16 19 21 22 23 23 25 27 29 32 34 35 34 33 33 33 33 34 35 35 35 35 36 38 40 40 40 39 39 39
7 6 4 3 3 3 2 5 3 10 11 6 4 5 10 13 14 15 16 18 16 14 14 16 17 17 15 11 9 9 8 8 10 12 9 7 7 8 7 8 9 8 9 8 7 7 7 8 9 9 7 7 8 9 10 11 13 14 15 17 19 20 22 24 27 30 32 32 31 32 33 33 33 34 35 35 35 35 37 39 40 39 38 38 39 40
8 6 3 2 3 2 2 4 9 9 4 4 7 4 4 3 4 8 11 14 15 16 16 18 19 19 16 12 9 8 8 9 10 9 6 7 9 8 8 9 9 8 8 7 7 7 6 4 4 5 7 9 9 10 10 10 11 11 12 14 16 17 19 21 25 28 29 30 31 32 32 32 33 33 34 34 34 35 37 39 40 39 38 37 38 39
7 6 4 4 4 4 5 7 7 5 6 11 12 5 4 4 6 6 8 12 13 13 13 14 17 17 13 10 10 10 8 7 8 6 5 8 8 8 8 6 4 4 5 4 3 2 2 3 4 6 9 12 12 11 11 10 10 11 12 13 14 16 17 20 25 27 28 29 31 31 31 32 33 33 33 34 34 36 38 38 39 38 37 36 36 37
3 3 4 7 6 5 7 8 6 5 11 15 10 5 7 8 8 8 6 11 10 9 11 12 14 14 10 9 13 10 3 4 8 6 5 5 4 4 4 4 3 1 2 4 5 5 5 6 7 8 10 12 13 12 11 10 10 10 12 13 13 15 17 21 25 26 27 29 30 30 31 32 32 33 34 34 35 37 38 37 38 38 37 37 37 37
1 2 2 4 4 4 7 8 7 8 11 11 6 4 5 7 8 9 4 11 8 8 12 13 13 13 12 11 12 5 3 4 9 6 5 6 4 1 2 3 4 4 5 5 5 6 7 8 8 9 10 11 11 11 11 11 10 10 13 14 13 15 19 23 25 25 26 27 28 28 29 30 32 33 34 35 36 37 38 37 37 37 37 37 36 35
3 1 2 5 6 7 9 8 6 6 8 6 4 3 4 5 10 9 6 9 5 7 10 12 12 11 9 6 4 2 5 6 7 4 5 5 2 1 2 2 3 3 3 4 4 5 6 7 8 10 11 11 12 11 11 11 10 11 14 14 13 17 22 24 24 23 25 25 25 26 28 29 31 33 34 35 36 37 37 37 36 35 35 36 36 34
5 3 4 8 9 10 11 9 5 5 6 5 5 4 3 6 7 7 9 7 4 5 3 4 6 4 3 1 2 4 6 6 4 4 5 2 2 1 2 2 2 3 4 4 4 5 7 8 10 11 12 13 12 12 12 11 10 13 15 14 16 21 23 22 22 22 22 23 24 25 27 28 30 31 33 35 36 36 36 36 35 34 34 35 34 33
6 4 4 6 8 8 9 8 6 6 5 5 5 3 4 5 4 7 5 1 4 5 2 4 5 4 3 3 4 5 4 5 4 4 5 2 1 2 4 4 3 3 5 5 5 6 7 8 10 12 13 13 12 13 13 11 12 15 15 15 20 23 22 20 20 21 21 21 22 24 25 27 28 29 31 33 34 34 34 33 33 34 34 34 33 32
6 5 3 4 5 4 5 7 7 6 4 7 8 3 3 5 6 5 3 2 3 4 3 3 4 5 5 4 3 4 4 5 6 5 5 4 3 4 5 4 4 6 7 7 8 8 7 9 11 13 15 15 14 15 13 12 14 16 16 19 24 23 21 20 21 20 21 21 22 23 23 25 26 28 30 31 32 33 32 32 32 32 32 32 31 30
5 5 3 4 5 4 4 7 7 4 4 7 8 5 5 4 2 2 4 3 2 1 2 2 2 4 6 5 2 4 4 4 5 5 5 5 6 5 5 5 6 7 8 9 10 10 8 10 12 15 17 18 18 17 15 13 16 18 19 23 25 22 20 21 20 20 21 21 22 22 23 24 25 26 28 30 31 31 31 30 30 30 31 31 30 28
7 7 5 4 5 5 4 5 4 3 4 4 2 1 2 2 2 4 6 4 3 1 2 3 2 1 3 5 2 3 4 4 5 5 5 5 6 6 6 7 8 9 11 12 13 12 10 10 12 15 18 21 21 20 19 16 16 19 23 25 25 22 21 21 19 20 21 21 21 22 22 23 24 25 27 28 29 30 29 29 28 28 28 28 28 26
4 4 2 2 3 5 4 3 3 2 2 1 3 4 4 4 4 4 6 5 2 1 1 2 2 2 0 2 1 3 4 4 5 5 5 5 5 5 6 7 9 10 12 13 15 14 12 12 13 15 19 23 24 23 22 19 17 20 25 26 24 22 22 21 19 20 21 21 21 20 21 21 22 23 25 26 27 29 29 29 29 28 27 27 26 25
2 1 1 2 4 4 4 2 3 3 1 3 4 4 5 5 4 5 5 4 1 1 2 1 1 1 1 1 2 4 6 6 5 6 7 5 5 6 5 6 7 8 10 12 14 14 14 14 15 16 18 22 26 25 23 22 20 22 25 25 23 21 21 20 19 20 21 21 20 20 20 21 21 22 23 24 25 26 26 27 28 28 27 26 25 23
1 2 0 2 2 3 3 2 0 0 2 3 4 4 5 4 4 5 4 3 3 1 2 2 2 3 2 3 4 5 6 6 6 6 6 6 6 6 6 6 9 10 11 12 13 13 14 14 16 18 19 22 26 26 25 25 25 25 25 24 22 20 19 19 19 20 21 21 20 20 19 20 21 22 22 23 24 25 25 25 26 27 27 27 27 25
0 2 0 1 1 3 4 3 2 3 4 4 3 3 3 2 4 5 3 2 4 3 4 3 3 4 4 5 5 3 5 7 7 6 6 6 6 6 7 9 12 14 15 15 14 13 13 15 17 19 21 24 27 27 26 28 28 27 25 24 21 19 18 19 18 19 20 20 19 19 19 19 20 21 22 22 22 23 24 25 26 27 27 27 28 28
1 0 0 1 1 2 4 3 1 1 2 2 1 1 2 3 5 5 4 3 4 4 5 6 6 5 5 5 5 4 5 7 7 5 6 6 6 7 9 11 13 15 15 15 15 15 15 16 18 20 23 26 27 26 27 28 28 26 24 22 20 19 19 19 19 19 19 18 18 18 18 19 19 20 21 22 21 21 20 20 22 24 25 24 25 25
3 3 3 2 2 3 4 5 4 3 3 5 1 4 7 7 7 7 7 7 7 6 6 6 7 7 7 5 3 2 4 7 7 6 7 7 8 10 12 13 13 15 16 16 15 16 18 19 20 20 23 25 25 24 25 26 26 25 23 21 19 18 19 19 19 19 18 18 18 18 19 19 19 19 20 20 21 21 19 17 16 17 19 20 20 21
Wind_Direction
84 87 119 174 196 211 204 178 166 160 139 138 123 106 136 134 122 258 230 302 94 122 250 231 238 258 261 269 267 267 256 223 231 242 246 245 241 234 228 230 224 222 230 225 215 207 202 202 202 201 200 197 196 197 199 200 202 205 205 205 206 208 211 210 208 205 203 203 203 205 207 210 211 213 214 211 212 215 215 214 215 213 209 208 209 209
66 104 207 215 205 198 186 161 131 96 83 90 104 96 74 110 159 230 209 290 339 114 266 293 295 270 260 262 264 267 267 245 223 224 239 240 238 237 231 236 234 233 232 203 199 197 195 197 196 197 195 194 193 194 198 200 202 204 206 207 207 207 209 211 212 210 207 207 206 205 207 210 212 212 212 210 210 214 215 216 218 220 219 217 215 212
54 168 233 222 184 122 96 103 97 86 82 75 85 95 65 111 160 305 317 293 7 126 271 351 348 280 269 260 259 255 247 250 231 217 233 236 237 240 228 232 236 238 229 179 178 185 190 193 191 192 194 196 198 196 198 201 202 203 206 208 207 208 210 212 214 215 213 211 209 209 210 212 213 211 209 209 209 210 212 213 214 215 215 214 212 209
113 239 239 211 134 92 72 70 81 76 70 80 94 107 182 231 130 285 303 285 282 120 266 335 325 280 281 279 267 257 243 251 253 238 241 237 233 235 226 225 224 223 216 185 180 184 186 188 188 191 195 196 198 198 199 201 202 204 206 208 207 208 211 212 214 216 215 211 208 211 215 217 215 211 207 206 206 206 208 208 207 208 208 208 209 208
200 246 250 131 95 98 98 64 78 91 41 1 115 129 173 148 121 162 292 326 354 1 351 351 329 288 301 323 288 281 278 262 263 260 255 247 238 239 237 233 224 215 203 181 184 189 183 186 190 193 195 195 197 199 201 203 204 206 208 210 210 209 211 212 213 214 212 208 205 205 207 209 208 207 203 201 204 206 206 205 204 205 205 205 207 207
228 263 271 113 85 86 104 90 121 129 89 329 223 157 166 143 124 106 23 29 30 347 320 28 357 294 309 322 285 296 327 291 293 303 270 257 237 229 233 232 228 218 199 182 185 188 186 188 190 192 194 195 197 201 204 205 208 210 211 213 212 210 210 212 214 214 214 209 205 202 198 196 196 198 200 202 205 207 206 206 204 203 203 203 204 203
230 337 62 124 112 79 88 104 198 137 105 243 226 173 148 121 108 91 59 55 68 271 284 67 104 270 302 299 267 274 284 277 291 301 273 264 240 221 228 224 219 203 183 191 192 184 186 186 185 191 195 197 199 202 205 207 210 212 213 213 213 213 212 214 216 216 215 211 208 206 204 203 201 200 203 207 210 212 212 209 206 203 201 200 200 199
160 65 61 89 90 80 98 122 216 124 112 213 229 152 123 102 110 115 94 94 194 250 320 17 126 241 290 268 253 258 268 278 285 275 266 267 252 235 241 230 216 201 182 186 192 184 187 187 188 194 197 200 202 203 204 207 209 211 213 213 214 216 216 217 217 216 216 213 210 210 210 211 213 213 213 213 215 216 213 210 206 202 199 197 197 196
122 146 157 118 91 98 159 207 246 110 109 237 225 137 118 111 124 119 97 93 15 40 323 315 103 232 270 267 273 265 254 274 271 258 261 267 250 237 239 220 210 214 188 179 187 186 190 193 195 198 199 201 203 205 207 208 210 212 213 214 215 216 217 217 216 216 217 216 213 214 214 215 218 221 221 221 220 216 210 206 204 201 197 195 195 195
101 174 184 134 119 166 188 238 255 113 118 213 164 89 66 73 81 78 94 99 33 35 260 258 200 217 267 272 287 43 202 257 262 259 262 265 253 232 192 156 159 156 137 154 175 184 191 197 199 199 199 201 204 207 209 209 210 210 211 212 214 215 216 216 216 217 217 216 215 217 218 219 219 219 220 221 217 210 206 204 201 200 197 194 193 194
313 207 167 107 138 175 152 106 46 99 122 124 90 62 41 28 38 42 65 82 53 295 256 241 205 200 283 278 248 192 209 232 236 267 276 267 248 209 186 181 175 156 123 124 144 173 187 193 194 194 196 200 203 206 208 208 208 208 210 212 213 214 215 216 216 217 217 216 216 218 220 221 219 217 216 214 210 204 201 202 202 201 198 195 195 193
357 23 355 334 252 134 101 65 21 23 72 89 82 79 60 353 13 19 3 45 88 258 261 265 236 177 244 266 257 256 264 244 193 196 230 228 221 214 214 212 198 193 171 129 131 155 167 173 180 185 191 196 199 202 204 205 206 207 209 210 211 213 215 216 217 217 216 215 216 218 220 222 221 217 216 213 209 205 202 203 203 202 200 198 197 194
4 345 295 330 309 137 105 77 20 357 21 75 91 94 91 343 11 2 324 22 223 249 258 289 321 211 236 250 259 273 280 262 211 200 206 206 214 225 224 215 199 191 188 175 159 161 166 169 176 181 187 192 196 200 202 203 205 207 209 210 211 213 215 216 217 217 216 215 216 218 219 221 221 219 218 217 214 211 209 208 206 203 201 200 199 197
337 317 306 7 310 200 135 129 130 288 171 129 135 127 133 134 101 255 272 284 259 262 268 298 302 259 277 270 243 247 255 251 238 231 210 189 202 223 222 204 192 191 190 191 187 181 186 188 185 186 189 192 196 200 201 203 205 206 207 209 212 215 217 218 218 218 216 215 216 217 218 220 220 218 219 219 218 216 214 213 210 208 206 204 202 201
171 284 240 181 221 186 167 173 158 151 155 171 159 133 144 158 158 196 214 207 242 276 286 295 269 207 220 271 248 242 261 275 271 258 235 211 224 222 195 176 175 192 200 201 206 208 210 204 197 195 195 196 199 201 202 204 205 205 206 209 212 215 216 218 219 219 218 216 216 215 216 219 219 218 219 220 221 221 219 215 213 212 211 210 208 206
161 228 256 273 262 158 171 232 132 115 100 243 145 110 159 187 147 146 184 178 172 298 293 262 237 212 209 269 270 260 268 280 288 294 301 287 285 291 163 176 179 201 205 202 213 222 223 214 207 205 203 203 203 203 205 205 205 206 207 209 213 216 218 219 220 220 220 219 217 215 215 217 218 217 218 220 222 224 223 220 218 217 218 218 216 212
151 242 310 351 13 120 163 260 83 124 179 208 139 169 220 179 119 119 227 7 92 254 270 216 249 282 321 288 277 271 267 267 279 296 298 281 281 284 238 199 187 213 209 202 211 217 218 214 213 213 210 208 207 206 207 209 209 210 210 211 214 218 220 221 222 222 222 220 217 216 216 218 218 217 217 220 221 222 223 222 223 225 226 224 221 217
152 152 321 38 62 278 218 125 34 23 127 125 168 217 214 104 84 107 176 350 51 253 273 234 247 280 318 278 303 349 332 280 252 257 264 271 276 272 263 230 202 218 211 207 216 220 217 212 215 217 216 214 212 212 212 212 213 214 215 216 216 218 220 221 223 223 224 222 218 217 217 219 219 218 218 220 222 223 223 223 226 228 229 227 225 222
137 121 315 36 154 289 335 111 80 341 65 126 180 195 117 116 223 111 151 198 151 246 279 277 263 256 214 227 267 305 309 298 237 235 242 256 258 254 263 265 254 239 216 211 219 222 216 213 217 218 218 218 217 216 217 216 216 216 218 220 220 223 224 225 225 225 225 224 221 219 218 219 220 219 220 220 221 224 225 226 227 227 227 226 225 224
128 138 242 291 231 298 2 111 186 248 354 26 66 111 89 132 174 169 163 167 155 201 262 300 303 255 221 201 190 228 255 248 235 235 230 237 243 241 247 261 264 245 220 217 217 219 218 217 221 220 220 220 218 218 219 218 219 219 219 221 222 224 226 226 227 227 226 226 224 221 220 219 220 220 221 220 221 224 227 227 226 224 223 223 224 224
111 157 200 293 330 261 193 210 187 177 178 163 146 187 207 89 111 161 173 144 137 158 206 282 290 264 239 191 179 203 233 237 225 218 222 235 244 246 242 243 247 235 227 226 219 219 223 223 224 224 222 221 219 219 220 220 221 221 222 223 222 223 223 225 227 228 228 227 225 223 221 220 220 220 221 221 222 225 227 227 225 223 223 223 225 225
157 162 157 166 284 203 225 252 204 186 185 175 179 190 184 152 125 148 243 262 125 154 179 172 278 274 245 177 194 204 218 234 214 191 209 236 246 250 247 239 235 228 222 224 222 222 226 227 226 223 222 221 219 218 219 220 221 221 224 225 224 223 224 224 226 227 228 228 226 224 222 222 222 222 221 220 222 225 226 226 224 222 222 223 225 226
122 109 118 162 217 212 243 276 231 193 177 159 188 187 166 144 123 145 208 246 205 223 196 128 265 275 245 158 183 193 185 191 179 174 193 228 238 234 241 249 245 233 225 221 223 225 227 227 223 217 217 218 219 220 219 220 221 223 226 227 227 226 226 226 225 226 228 228 227 225 224 223 224 224 223 221 223 225 224 224 224 222 221 223 225 227
103 107 111 121 306 319 305 316 344 21 81 129 211 170 151 171 159 155 178 177 165 219 198 122 244 263 282 92 123 105 111 137 168 177 175 200 233 225 225 239 241 242 251 246 238 238 232 224 213 206 208 212 217 220 221 222 223 225 227 228 230 231 231 228 226 225 226 226 228 227 225 224 224 224 224 224 225 226 225 224 223 222 222 223 226 227
184 167 126 118 75 352 336 324 314 318 83 186 220 186 175 178 158 138 132 129 208 221 179 161 239 247 268 24 25 26 28 5 274 254 209 223 248 244 232 239 241 243 250 244 240 244 235 223 211 206 207 209 214 219 221 223 224 225 226 227 230 234 235 233 229 226 224 224 225 226 225 225 225 224 224 224 225 226 226 224 223 223 223 223 226 227
177 177 153 153 178 199 207 215 223 203 161 215 221 186 185 175 163 167 152 172 230 222 165 186 244 252 256 296 342 352 358 331 296 295 303 271 254 253 248 243 242 238 234 231 229 231 234 235 232 224 215 211 215 219 222 225 226 226 228 229 232 235 236 234 231 228 226 224 223 225 225 225 225 225 225 225 226 227 225 224 223 223 224 225 226 226
134 181 187 182 196 204 201 209 188 138 142 204 210 185 186 187 179 171 144 191 218 211 186 222 240 263 270 261 268 284 273 263 277 286 292 278 263 261 249 236 234 232 231 230 226 228 235 240 238 232 225 220 220 223 226 228 229 229 230 232 234 235 235 234 231 229 229 226 224 225 226 226 226 226 226 226 226 227 226 224 222 223 224 225 225 225
109 202 206 194 208 213 201 194 168 153 170 197 196 188 192 194 181 178 199 215 207 186 240 240 216 246 265 259 248 259 258 250 255 253 253 256 256 257 252 248 248 245 244 239 229 228 229 232 236 232 229 227 225 229 231 231 233 233 233 236 237 235 234 233 230 229 230 228 226 228 228 228 227 227 227 227 227 227 227 225 223 222 223 224 224 225
126 206 210 190 215 227 207 176 168 175 185 190 192 192 193 193 186 194 216 222 201 186 237 244 205 216 252 260 250 245 243 236 239 241 245 251 252 256 261 263 259 253 250 239 229 230 227 230 237 233 232 232 229 233 235 234 235 234 234 238 239 237 235 233 229 229 229 227 229 231 231 229 228 228 228 228 228 227 227 226 225 223 223 223 224 224
143 211 202 178 212 238 223 187 181 187 184 182 198 198 192 196 197 202 217 223 215 213 235 248 241 238 250 261 258 243 228 224 243 258 265 258 249 247 250 253 255 251 246 239 233 233 230 230 236 236 233 231 230 234 236 236 236 235 234 238 239 238 236 232 229 229 228 228 232 234 232 230 228 228 227 227 228 227 226 225 225 224 224 224 224 224
188 217 180 148 191 252 242 211 190 186 186 193 218 219 210 207 206 212 221 223 222 231 241 249 258 260 255 234 243 254 235 221 259 266 260 254 248 248 248 246 247 244 241 243 242 238 238 243 253 252 238 234 237 239 238 240 241 239 239 241 241 240 238 232 229 228 228 231 235 234 232 230 229 227 227 227 227 227 226 224 223 224 224 224 224 224
177 214 86 117 167 252 248 216 178 160 169 205 237 233 222 213 214 220 218 210 211 222 236 243 249 258 255 185 224 255 231 217 258 262 258 260 251 245 245 239 237 239 241 249 254 258 266 274 277 269 254 251 252 250 249 249 247 243 245 247 247 244 240 232 230 230 231 235 236 232 231 230 228 227 228 228 227 226 225 224 223 223 223 223 222 221
163 174 155 144 177 243 248 194 135 119 131 227 241 232 220 214 217 213 204 219 218 211 218 228 233 248 251 183 214 250 234 231 263 259 244 256 252 242 244 241 241 248 252 255 260 267 273 273 272 269 266 267 265 264 267 263 255 252 256 257 254 247 239 234 232 232 234 237 235 232 232 231 229 228 228 228 228 226 224 222 223 223 222 222 221 220
166 175 184 170 177 229 234 133 103 153 215 234 238 215 206 214 214 206 214 224 221 210 219 237 244 253 254 216 219 241 231 229 256 253 239 241 243 245 250 252 253 255 259 264 266 268 265 263 271 275 275 282 287 289 291 281 268 267 268 264 257 248 240 236 234 234 236 238 236 234 234 233 230 230 230 230 229 226 224 223 224 224 222 221 219 218
176 182 187 181 173 202 160 101 175 233 231 242 270 210 207 218 212 210 225 230 222 216 224 240 249 252 251 242 235 239 235 232 246 254 251 235 231 242 249 255 259 258 264 274 272 265 263 261 270 285 297 311 316 311 306 298 287 281 274 265 257 249 242 238 237 238 239 238 237 237 236 234 232 232 232 231 228 225 224 224 225 224 222 220 219 218
176 177 169 174 176 171 124 168 222 247 275 292 278 239 193 205 187 207 239 243 227 216 218 230 242 247 250 255 254 248 242 245 254 261 246 216 217 226 229 241 251 247 250 263 262 264 277 279 287 315 324 322 321 317 312 307 299 289 279 268 258 250 245 241 240 242 241 239 240 239 237 236 234 233 233 231 228 226 225 225 224 224 222 221 220 220
163 171 177 198 198 202 214 220 242 296 306 272 259 228 172 175 171 184 235 250 232 211 210 224 237 246 250 253 256 255 253 263 278 278 226 206 213 228 237 250 271 258 256 272 274 285 357 3 343 337 328 320 322 327 325 317 306 294 282 271 259 252 248 243 243 245 243 243 244 242 240 238 236 234 234 231 228 228 227 226 225 224 222 220 220 220
161 165 181 205 204 194 217 236 247 253 256 255 245 204 188 193 174 158 209 257 248 198 194 216 232 241 242 239 247 251 255 278 276 262 238 249 291 311 309 338 6 37 55 42 35 25 8 349 339 334 325 320 322 331 332 324 314 299 282 271 262 254 249 245 247 249 248 249 249 247 244 242 239 236 234 231 230 230 229 227 225 224 221 220 221 221
194 58 118 210 209 182 206 231 230 228 249 254 228 197 205 186 149 131 193 260 251 176 183 207 222 230 229 236 246 231 134 260 267 255 254 277 299 342 16 10 18 53 60 41 18 353 336 334 332 324 320 320 321 326 324 317 312 295 279 273 265 256 251 250 253 256 256 257 257 253 249 246 242 239 236 234 233 232 231 229 226 224 222 221 221 223
194 131 152 207 213 204 210 227 230 234 253 246 208 231 246 158 128 133 213 255 221 165 189 204 213 229 235 243 265 150 168 233 250 238 244 256 261 107 92 20 359 4 3 353 346 328 321 323 320 317 319 320 321 323 318 312 305 286 277 275 266 256 255 259 264 266 265 264 261 257 253 249 244 242 239 238 237 235 232 230 227 223 221 221 221 222
194 189 193 205 214 214 214 224 240 247 243 214 187 191 154 115 125 173 222 240 178 164 197 173 176 221 252 209 198 201 217 229 213 225 249 244 76 37 274 262 272 274 286 304 316 314 314 315 312 312 315 317 320 319 313 308 294 280 279 275 263 263 268 273 275 272 269 266 262 258 255 251 248 246 244 242 239 236 233 230 227 224 222 221 220 220
182 186 196 204 212 217 218 224 238 254 238 176 167 183 133 123 192 216 219 202 150 156 122 103 142 165 138 137 186 206 240 261 248 258 274 264 139 251 252 249 257 267 274 284 294 296 296 300 304 306 311 317 319 315 311 302 283 278 278 269 267 276 284 283 278 275 272 268 263 259 256 253 251 249 246 243 238 234 232 229 226 224 222 220 219 218
177 181 193 192 195 206 220 215 218 249 239 144 141 193 206 188 217 217 177 148 142 146 145 128 148 166 142 125 186 214 251 279 277 284 294 293 284 269 261 261 267 277 286 292 299 301 295 295 301 306 311 317 317 314 313 298 282 280 275 271 278 288 289 283 279 277 273 268 265 262 258 256 253 249 245 241 236 232 230 227 223 221 220 218 215 214
178 180 189 195 191 182 204 217 214 221 209 165 158 191 206 193 197 134 133 133 72 86 183 135 131 181 156 130 169 227 241 259 258 254 259 266 269 272 282 286 280 284 294 299 305 310 303 296 300 305 311 316 317 317 313 297 285 282 277 281 291 296 290 286 283 277 271 268 265 263 260 257 253 247 242 238 233 229 226 222 219 216 215 214 211 209
201 195 188 191 199 187 195 220 215 190 203 196 151 107 133 108 63 97 114 101 74 162 177 87 48 276 167 137 178 233 225 232 240 234 231 242 253 263 278 287 286 291 297 301 306 310 303 296 298 302 306 312 316 315 311 302 287 279 281 290 298 299 296 293 286 276 270 266 262 260 258 253 248 243 238 234 229 224 220 217 213 210 209 209 207 205
232 210 179 173 214 225 232 216 160 150 213 164 81 70 85 81 54 68 80 65 48 245 223 68 22 322 287 139 260 285 278 289 305 300 289 287 281 271 267 273 285 295 300 304 310 313 310 303 299 298 300 307 312 312 309 304 290 280 285 294 297 295 295 293 285 275 268 263 259 255 250 244 240 235 232 229 226 223 220 215 210 206 204 203 202 203
304 351 197 212 212 219 244 241 153 150 116 102 104 77 68 68 50 55 65 49 32 237 263 278 271 292 276 220 265 282 287 304 313 301 298 302 293 286 281 280 288 292 293 298 305 308 306 300 296 295 295 299 305 309 307 303 295 289 291 293 292 289 287 284 277 271 264 260 255 248 240 234 230 225 222 220 219 217 216 214 210 205 200 198 197 198
304 13 218 243 245 210 227 284 50 141 24 65 110 107 85 67 36 47 55 4 339 294 265 258 210 209 229 244 250 260 282 298 296 288 294 298 295 300 302 296 300 302 300 300 301 299 296 291 289 291 291 293 300 305 304 302 300 299 297 294 290 286 279 272 267 263 260 257 250 242 235 228 223 218 214 212 211 209 209 208 206 203 202 202 201 199
354 359 89 113 337 262 250 285 323 318 346 28 71 107 112 79 30 41 57 350 329 311 304 308 273 232 232 255 264 264 282 288 282 275 282 286 288 295 293 292 298 300 300 303 306 303 295 289 287 289 289 292 298 301 301 301 302 302 300 295 290 283 272 264 259 255 253 251 244 237 231 224 219 215 209 205 204 205 207 208 207 207 208 210 211 210
134 298 5 80 20 289 259 249 215 214 283 289 297 339 354 359 2 7 10 359 339 312 305 309 298 274 253 252 251 240 260 278 280 273 275 279 276 279 286 294 297 297 301 308 311 308 301 295 292 290 289 292 298 300 300 300 301 302 300 294 287 278 267 260 254 248 244 241 235 231 225 218 214 210 205 200 196 195 199 204 209 211 212 213 215 216
166 193 176 150 197 237 230 212 164 140 228 260 287 53 30 13 9 4 359 358 356 347 332 318 312 313 310 296 271 230 251 275 292 298 294 293 292 291 294 296 297 300 306 311 310 306 302 299 296 293 292 295 300 300 299 299 300 301 299 291 282 274 264 256 249 242 236 231 227 224 219 213 208 203 199 196 193 189 186 186 193 205 212 214 215 216